Date,TemperatureHighF,TemperatureAvgF,TemperatureLowF,DewpointHighF,DewpointAvgF,DewpointLowF,HumidityHigh,HumidityAvg,HumidityLow,PressureMaxIn,PressureMinIn,WindSpeedMaxMPH,WindSpeedAvgMPH,GustSpeedMaxMPH,PrecipitationSumIn
2012-1-1,49.5,45.0,39.9,46.3,41.4,36.8,95,87,80,29.40,29.28,16,5,36,0.05
2012-1-2,42.3,39.3,36.1,38.2,36.4,35.1,100,89,80,29.47,29.31,11,5,26,0.06
2012-1-3,53.4,42.4,38.1,50.4,39.3,36.2,100,89,72,29.54,28.50,25,6,46,0.63
2012-1-4,49.1,42.5,38.5,48.9,40.6,-6.5,100,93,80,29.73,29.03,108,6,108,0.51
2012-1-5,44.8,41.6,37.0,40.7,36.9,32.6,96,84,62,30.08,29.13,11,3,21,0.03
2012-1-6,51.1,43.4,36.7,50.5,41.0,33.9,99,91,79,30.22,29.82,11,4,24,0.00
2012-1-7,46.8,45.1,43.0,42.0,40.4,37.4,89,84,77,30.12,29.83,11,4,24,0.00
2012-1-8,51.8,48.2,43.9,51.3,46.4,-8.6,100,93,81,30.23,30.13,10,4,17,0.00
2012-1-9,50.7,47.1,42.6,49.0,43.7,38.8,97,88,75,30.38,30.06,14,4,28,0.00
2012-1-10,50.7,47.1,36.3,48.8,43.8,32.5,95,88,81,30.34,30.22,12,6,21,0.06
2012-1-11,52.5,48.4,45.7,50.0,46.9,44.6,100,95,86,30.37,29.95,17,5,30,0.00
2012-1-12,52.7,46.7,38.5,50.9,43.2,36.0,97,87,67,30.46,29.86,17,6,32,0.00
2012-1-13,41.5,37.3,32.7,37.7,35.0,32.0,99,91,81,30.60,30.46,4,0,7,0.00
2012-1-14,42.4,38.4,33.3,41.1,37.2,31.7,99,95,86,30.50,30.32,2,0,4,0.00
2012-1-15,37.8,31.9,28.6,36.5,31.5,28.5,100,98,95,30.33,30.27,2,0,3,0.00
2012-1-16,38.7,31.4,25.7,35.4,30.5,25.7,100,97,87,30.32,30.23,4,0,8,0.00
2012-1-17,47.7,43.2,37.8,45.7,40.7,34.8,95,91,87,30.26,29.99,11,2,22,0.00
2012-1-18,52.7,47.2,43.0,52.2,43.7,39.0,99,88,74,30.06,29.86,14,6,27,0.00
2012-1-19,43.9,39.6,35.6,41.3,37.5,34.8,100,92,74,29.95,29.78,11,4,26,0.25
2012-1-20,50.4,41.7,36.1,50.4,40.1,34.0,100,94,84,29.97,29.61,11,3,21,0.00
2012-1-21,50.9,44.6,41.4,50.2,40.3,37.6,100,85,78,29.72,29.52,15,6,26,0.03
2012-1-22,46.6,43.7,40.1,45.5,40.2,37.6,100,87,75,29.92,29.47,14,4,30,0.05
2012-1-23,43.7,39.9,37.8,38.8,36.7,35.1,95,88,75,30.09,29.90,8,2,14,0.00
2012-1-24,42.8,40.6,37.4,42.8,40.0,37.2,100,98,91,30.07,29.87,7,0,12,0.17
2012-1-25,51.6,49.6,41.4,50.1,47.1,41.2,100,91,83,29.88,29.43,15,5,31,0.09
2012-1-26,42.3,38.2,35.2,41.2,36.9,33.4,100,95,88,29.70,29.48,10,1,18,0.06
2012-1-27,39.9,37.2,33.3,38.6,36.5,32.5,100,97,94,30.33,29.70,7,1,13,0.00
2012-1-28,41.2,35.0,31.1,37.9,33.7,30.4,100,95,86,30.53,30.33,3,0,6,0.00
2012-1-29,41.4,36.8,31.6,39.1,36.0,31.6,100,97,87,30.53,30.45,2,0,5,0.00
2012-1-30,40.6,37.1,34.2,37.1,34.6,31.8,99,91,76,30.45,30.38,3,0,6,0.00
2012-1-31,40.6,38.5,37.2,34.3,32.5,30.4,85,79,69,30.66,30.38,2,0,4,0.00
2012-2-1,41.0,36.9,31.1,31.4,29.3,26.0,83,74,63,30.76,30.66,4,0,8,0.00
2012-2-2,36.5,31.6,26.1,29.4,24.2,-16.2,95,78,11,30.77,30.68,6,1,11,0.00
2012-2-3,39.2,35.7,33.4,33.4,29.5,25.8,93,78,68,30.70,30.61,8,2,13,0.00
2012-2-4,41.9,39.1,33.1,39.9,36.9,30.8,100,92,81,30.61,30.10,13,3,24,0.05
2012-2-5,45.3,40.4,36.7,42.3,39.4,36.5,100,96,87,30.44,30.20,6,2,11,0.02
2012-2-6,45.1,38.0,33.3,41.0,36.7,32.8,100,95,79,30.71,30.44,2,0,4,0.00
2012-2-7,43.3,35.3,28.6,38.8,33.1,28.6,100,92,74,30.80,30.71,3,0,6,0.00
2012-2-8,37.2,34.9,30.9,33.4,29.3,24.4,93,80,61,30.82,30.66,5,1,17,0.00
2012-2-9,43.3,40.0,35.1,43.3,39.8,33.4,100,99,93,30.67,30.57,4,0,8,0.21
2012-2-10,42.1,41.1,39.6,42.1,40.5,38.4,100,98,91,30.60,30.53,3,0,4,0.00
2012-2-11,43.5,41.0,39.0,41.2,39.6,38.2,98,95,89,30.62,30.51,6,1,10,0.00
2012-2-12,45.9,42.2,37.0,44.0,40.5,35.5,100,94,79,30.63,30.51,4,1,9,0.02
2012-2-13,50.7,45.0,36.7,44.4,39.5,35.0,100,82,62,30.52,30.30,7,2,14,0.00
2012-2-14,50.9,46.2,41.7,45.0,40.4,36.6,90,80,74,30.44,30.26,8,3,17,0.00
2012-2-15,54.7,47.6,42.4,45.2,42.0,38.3,90,81,66,30.37,30.27,8,3,16,0.02
2012-2-16,53.2,47.7,43.3,51.3,44.9,40.6,97,90,77,30.35,30.10,11,4,23,0.00
2012-2-17,51.6,46.9,42.8,50.0,43.7,39.1,99,89,77,30.15,29.65,14,5,27,0.00
2012-2-18,49.5,41.8,34.3,46.0,37.0,28.8,99,84,62,29.94,29.44,17,6,32,0.48
2012-2-19,42.3,36.7,31.5,35.8,29.5,26.0,90,76,53,30.35,29.94,8,2,12,0.00
2012-2-20,51.1,46.6,39.7,50.2,43.8,35.3,100,90,81,30.31,29.97,17,7,31,0.00
2012-2-21,55.0,52.2,50.0,52.2,49.9,47.3,100,92,84,30.11,29.93,15,6,26,0.00
2012-2-22,59.0,53.7,50.0,56.1,51.9,48.1,98,94,89,29.94,29.60,14,7,27,0.03
2012-2-23,55.9,53.4,50.5,54.2,51.8,47.6,100,94,83,30.01,29.90,15,6,27,0.00
2012-2-24,52.2,48.3,43.7,49.1,42.4,36.8,95,81,60,30.33,30.00,15,6,27,0.00
2012-2-25,49.8,46.1,43.3,47.7,44.2,40.4,100,93,87,30.32,30.20,11,4,21,0.00
2012-2-26,50.5,48.3,46.4,49.1,47.0,45.3,100,95,88,30.32,30.09,12,4,24,0.00
2012-2-27,55.4,52.6,50.0,55.4,51.4,47.0,100,96,81,30.10,29.97,13,5,21,0.00
2012-2-28,56.1,54.2,51.6,55.0,53.6,50.8,100,98,91,30.19,30.03,9,4,20,0.00
2012-2-29,54.0,51.0,49.6,51.4,47.3,45.0,99,87,79,30.18,30.10,11,4,22,0.00
2012-3-1,57.0,51.1,45.9,50.7,47.3,44.1,100,87,75,30.38,30.12,10,3,16,0.00
2012-3-2,54.0,47.3,42.1,50.6,46.3,42.1,100,96,84,30.37,30.12,4,0,8,0.00
2012-3-3,54.5,46.3,42.6,46.2,43.1,39.7,98,89,68,30.12,29.83,12,2,20,0.02
2012-3-4,46.2,40.5,36.0,41.5,37.0,32.5,100,88,65,30.20,29.99,6,1,12,0.11
2012-3-5,48.7,40.4,34.9,38.5,34.6,30.8,99,81,52,30.37,30.20,5,1,9,0.00
2012-3-6,49.8,42.3,33.1,47.8,38.2,30.8,97,86,69,30.36,29.67,14,4,26,0.00
2012-3-7,53.4,44.4,37.2,51.0,40.5,32.5,98,87,63,30.04,29.53,17,5,34,0.03
2012-3-8,53.1,46.3,37.9,48.3,43.2,36.1,96,89,80,30.29,30.03,14,5,25,0.02
2012-3-9,58.3,52.6,47.8,53.6,48.7,41.7,90,86,78,30.40,30.17,17,6,29,0.02
2012-3-10,51.8,49.9,48.0,47.2,45.8,42.5,95,86,78,30.62,30.36,9,4,17,0.00
2012-3-11,50.0,50.0,50.0,46.6,46.6,46.6,88,88,88,30.63,30.57,4,4,11,0.00
2012-3-12,50.0,50.0,50.0,46.6,46.6,46.6,88,88,88,30.59,30.55,4,4,11,0.00
2012-3-13,50.0,50.0,50.0,46.6,46.6,46.6,88,88,88,30.59,30.52,4,4,11,0.00
2012-3-14,50.0,50.0,50.0,46.6,46.6,46.6,88,88,88,30.53,30.31,4,4,11,0.00
2012-3-15,50.0,50.0,50.0,46.6,46.6,46.6,88,88,88,30.31,30.08,4,4,11,0.00
2012-3-23,47.8,45.8,45.1,47.3,45.8,45.1,100,100,97,30.49,30.45,2,0,5,0.00
2012-3-24,52.2,46.7,43.5,50.6,46.3,43.5,100,99,91,30.59,30.48,3,0,5,0.00
2012-3-25,66.4,52.5,39.9,57.1,48.0,39.7,100,86,59,30.72,30.58,3,0,4,0.00
2012-3-26,68.2,57.3,43.7,50.7,46.9,40.3,98,70,49,30.76,30.71,3,0,4,0.00
2012-3-27,70.3,56.5,43.2,48.9,40.8,36.8,81,58,31,30.77,30.69,49,1,49,0.00
2012-3-28,68.5,57.1,45.9,46.8,42.2,38.3,86,60,33,30.70,30.55,8,2,15,0.00
2012-3-29,65.1,54.8,48.2,49.8,44.9,38.3,93,70,56,30.55,30.43,9,3,16,0.11
2012-3-30,61.5,51.9,45.5,49.4,46.4,43.5,96,82,61,30.47,30.25,11,4,19,0.00
2012-3-31,51.6,46.4,40.5,43.9,39.3,34.6,94,77,58,30.38,30.26,4,0,6,0.00
2012-4-1,59.2,47.8,36.7,47.1,41.0,34.3,96,78,59,30.38,30.09,8,2,12,0.00
2012-4-2,49.6,45.6,41.5,47.8,44.4,41.5,100,96,88,30.09,29.76,5,1,9,0.03
2012-4-3,46.2,39.7,35.8,45.0,36.5,28.0,100,89,59,30.12,29.65,10,4,20,0.98
2012-4-4,44.4,39.7,35.4,38.2,33.6,28.8,96,79,65,30.43,30.11,11,3,21,0.05
2012-4-5,51.4,41.4,31.1,43.6,35.5,28.0,95,80,63,30.42,30.22,8,2,17,0.00
2012-4-6,52.5,47.3,43.3,52.0,46.7,42.8,100,98,93,30.22,29.93,7,2,11,0.08
2012-4-7,54.0,47.3,41.7,50.3,45.1,41.6,100,92,76,30.11,29.97,6,1,11,0.03
2012-4-8,54.9,50.0,45.0,50.3,47.4,43.0,98,91,77,30.00,29.60,11,4,19,1.52
2012-4-9,52.3,47.0,43.9,45.4,42.7,39.8,94,85,74,29.61,29.00,11,3,17,0.03
2012-4-10,51.6,43.0,33.8,45.8,41.7,33.8,100,96,70,29.32,28.93,5,1,11,1.57
2012-4-11,59.5,46.5,42.1,44.3,42.4,36.4,100,87,46,29.71,29.32,4,1,9,0.12
2012-4-12,55.8,45.0,41.5,43.7,40.2,33.3,100,85,47,29.88,29.70,4,0,7,0.09
2012-4-13,60.1,43.2,37.6,39.6,36.3,-2.2,95,78,21,29.94,29.86,6,1,49,0.00
2012-4-14,52.2,42.4,38.5,39.0,35.2,30.8,96,77,46,30.23,29.94,7,1,14,0.02
2012-4-15,51.1,41.7,32.9,35.4,30.4,25.5,87,66,40,30.43,30.23,5,1,11,0.02
2012-4-16,54.3,43.6,34.5,39.2,34.1,28.5,89,70,42,30.44,29.86,8,1,14,0.00
2012-4-17,55.6,45.7,40.8,45.5,40.3,36.9,96,82,53,29.86,29.25,11,3,20,0.09
2012-4-18,54.3,45.8,39.9,48.1,42.3,38.3,100,88,69,29.34,29.21,4,1,10,0.18
2012-4-19,49.5,46.1,43.7,47.9,45.4,43.2,100,98,90,29.40,29.33,5,1,11,0.14
2012-4-20,57.9,46.4,43.0,50.4,44.9,43.0,100,95,68,29.44,29.36,3,0,6,0.11
2012-4-21,55.2,47.0,43.5,47.5,45.4,43.5,100,95,69,29.60,29.42,7,0,11,0.29
2012-4-22,55.9,47.8,44.1,46.0,44.3,40.4,100,88,61,29.70,29.60,4,1,7,0.02
2012-4-23,54.9,46.9,44.2,47.3,42.9,40.3,95,86,63,29.67,29.58,7,1,11,0.00
2012-4-24,53.8,46.2,43.3,49.7,43.2,41.0,100,89,71,29.67,29.60,4,1,8,0.25
2012-4-25,47.8,45.0,42.1,46.8,44.8,42.1,100,99,93,29.62,29.39,6,2,15,0.26
2012-4-26,50.4,46.2,44.2,46.9,44.4,38.8,100,94,83,29.82,29.39,6,2,17,0.18
2012-4-27,55.4,44.2,37.8,41.7,36.8,32.7,95,76,48,30.32,29.82,6,1,11,0.05
2012-4-28,52.7,44.7,39.9,41.1,37.5,33.5,95,76,59,30.47,30.32,5,1,11,0.00
2012-4-29,46.4,42.9,39.7,42.6,38.9,36.3,100,86,68,30.43,30.10,6,2,13,0.23
2012-4-30,47.7,45.4,42.3,47.7,45.4,42.3,100,100,100,30.45,30.09,4,2,12,0.20
2012-5-1,53.8,47.9,45.1,49.5,46.4,44.2,100,95,78,30.48,30.42,4,1,10,0.00
2012-5-2,50.9,46.8,44.4,46.6,45.0,43.6,100,94,84,30.48,30.36,4,1,8,0.00
2012-5-3,59.0,48.0,43.3,50.6,44.6,42.1,99,89,66,30.36,29.98,4,0,7,0.00
2012-5-4,49.8,45.7,39.6,45.7,37.7,27.0,100,75,49,30.08,29.95,6,1,12,0.05
2012-5-5,53.6,43.2,32.9,32.8,28.1,22.6,86,58,32,30.10,30.04,5,1,9,0.00
2012-5-6,55.9,44.4,39.7,42.2,37.6,31.3,97,78,56,30.12,30.06,3,0,6,0.11
2012-5-7,53.6,44.7,37.0,45.9,41.0,35.8,100,88,56,30.12,29.79,6,0,10,0.12
2012-5-8,59.7,49.0,40.5,47.4,42.6,37.7,100,80,56,29.80,29.69,9,2,17,0.00
2012-5-9,56.7,48.1,41.2,43.7,41.1,37.8,94,78,58,29.95,29.79,5,1,10,0.00
2012-5-10,47.5,44.0,42.1,45.7,43.6,42.0,100,98,84,29.96,29.81,5,1,12,1.44
2012-5-11,49.5,43.4,40.1,46.5,42.6,40.0,100,97,86,30.61,29.95,5,1,11,0.64
2012-5-12,61.3,48.9,38.1,44.5,40.8,33.1,100,76,39,30.74,30.61,9,2,17,0.02
2012-5-13,53.2,48.7,45.7,48.8,44.5,40.6,95,85,70,30.61,29.80,19,8,34,0.15
2012-5-14,56.1,47.9,41.5,47.0,41.9,39.7,99,80,62,29.93,29.82,13,4,22,0.12
2012-5-15,55.8,46.8,41.7,43.0,37.7,29.9,100,73,39,30.32,29.93,9,1,17,0.18
2012-5-16,56.5,46.4,37.6,43.9,38.3,34.4,91,74,49,30.35,30.27,8,2,13,0.00
2012-5-17,50.4,46.9,45.5,47.8,45.7,43.2,100,96,86,30.28,30.05,4,1,10,0.41
2012-5-18,45.5,43.6,42.6,45.3,43.6,42.6,100,100,98,30.12,30.01,5,1,14,0.60
2012-5-19,53.1,46.3,42.3,46.0,42.9,40.2,98,88,75,30.16,30.09,4,1,10,0.00
2012-5-20,58.6,48.3,39.6,47.2,42.7,39.0,99,82,56,30.15,30.03,4,1,8,0.00
2012-5-21,60.3,50.5,44.4,51.1,47.8,44.4,100,91,70,30.12,30.03,4,1,7,0.00
2012-5-22,70.3,56.0,47.5,57.7,51.2,47.5,100,86,56,30.33,30.11,4,1,7,0.00
2012-5-23,68.7,56.5,49.3,59.3,54.0,49.3,100,92,70,30.48,30.32,4,0,8,0.00
2012-5-24,78.1,63.3,55.6,65.3,59.4,55.3,100,88,62,30.56,30.47,4,1,7,0.00
2012-5-25,68.4,58.7,52.7,58.8,55.3,52.7,100,90,67,30.59,30.51,4,1,8,0.00
2012-5-26,73.0,60.7,51.6,55.6,53.1,50.9,100,79,47,30.55,30.42,6,1,11,0.00
2012-5-27,73.4,61.2,52.9,57.3,54.7,51.1,100,82,49,30.43,30.26,4,1,8,0.00
2012-5-28,74.5,60.4,53.2,58.6,54.8,-0.8,100,83,10,30.27,30.19,4,1,10,0.00
2012-5-29,61.0,53.7,50.5,57.7,53.3,50.5,100,98,88,30.24,30.14,3,0,5,0.02
2012-5-30,56.1,54.6,52.5,56.1,54.5,52.3,100,100,98,30.19,30.16,2,0,4,0.11
2012-5-31,58.5,53.0,48.7,58.5,53.0,48.7,100,100,100,30.22,30.10,3,0,6,1.09
2012-6-1,66.4,55.0,48.4,53.5,49.7,46.5,100,84,53,30.30,30.20,4,0,8,0.02
2012-6-2,55.6,51.6,47.3,48.4,43.4,39.3,87,74,59,30.24,30.11,4,1,7,0.00
2012-6-3,59.7,50.4,44.1,45.2,42.6,39.6,91,75,50,30.15,30.04,5,1,8,0.00
2012-6-4,66.7,52.8,42.1,44.8,41.1,34.5,98,68,32,30.19,30.12,5,1,12,0.00
2012-6-5,63.3,53.4,46.0,52.4,45.7,41.3,99,76,50,30.13,29.76,4,1,7,0.03
2012-6-6,56.5,53.5,51.6,56.5,53.5,51.6,100,100,99,29.77,29.55,2,0,6,0.15
2012-6-9,55.0,54.8,54.5,53.7,53.6,53.4,96,96,95,29.89,29.88,3,2,3,0.22
2012-6-10,57.6,53.5,51.4,53.4,50.7,47.6,98,91,79,29.92,29.88,5,2,7,0.04
2012-6-11,58.6,52.3,49.1,48.3,46.1,43.3,95,80,60,29.97,29.88,5,2,6,0.11
2012-6-12,59.7,53.0,46.2,44.9,43.3,41.5,88,70,54,30.09,29.96,5,1,7,0.01
2012-6-13,65.3,54.9,47.8,45.1,42.4,38.8,86,64,39,30.20,30.09,6,2,8,0.00
2012-6-14,65.3,55.0,48.6,48.7,44.4,40.7,77,68,53,30.21,30.12,6,2,6,0.00
2012-6-15,50.5,49.8,48.9,49.3,47.3,43.4,98,91,78,30.12,29.73,5,2,10,0.35
2012-6-16,51.8,50.5,49.5,51.5,50.2,48.9,99,99,98,29.73,29.62,11,4,11,0.70
2012-6-17,54.7,50.9,48.4,53.3,49.9,46.5,99,97,91,30.12,29.74,4,1,7,0.61
2012-6-18,66.7,54.9,43.5,47.4,43.9,38.5,94,70,36,30.12,30.08,11,2,11,0.01
2012-6-19,69.6,59.3,52.9,50.2,45.5,39.7,78,62,39,30.18,30.07,13,3,13,0.00
2012-6-20,65.7,56.7,47.7,54.1,49.3,44.2,89,77,64,30.21,30.13,5,2,8,0.01
2012-6-21,56.7,54.5,53.1,55.3,53.1,49.9,99,95,89,30.14,29.62,7,3,8,0.35
2012-6-22,62.2,56.2,54.1,62.0,55.1,52.4,99,96,90,29.68,29.51,6,1,6,0.63
2012-6-23,60.6,55.9,53.1,53.8,51.4,48.8,95,85,68,29.92,29.68,21,8,21,0.32
2012-6-24,66.6,58.3,52.9,54.6,52.1,49.6,96,81,63,29.99,29.82,8,3,9,0.06
2012-6-25,67.5,58.6,50.5,54.0,50.2,47.7,91,75,57,30.21,29.98,7,2,10,0.00
2012-6-26,70.0,58.5,51.3,57.9,54.4,48.6,98,87,63,30.22,30.07,4,2,8,0.13
2012-6-27,62.2,56.8,54.5,58.7,55.9,54.2,99,97,85,30.08,29.97,4,1,4,0.13
2012-6-28,72.5,60.7,55.4,67.9,58.4,53.4,99,93,70,29.97,29.47,15,2,15,0.34
2012-6-29,66.0,60.7,57.6,57.4,55.1,53.0,94,82,70,29.50,29.36,17,7,22,0.22
2012-6-30,66.9,59.6,53.2,56.7,52.2,47.3,91,77,57,29.71,29.50,17,6,18,0.04
2012-7-1,65.3,57.1,53.1,56.1,51.0,47.5,96,81,62,29.94,29.70,11,3,14,0.05
2012-7-2,60.8,56.5,52.9,60.0,55.0,48.4,99,95,80,29.94,29.91,3,1,5,0.20
2012-7-3,66.2,61.1,56.8,61.6,58.5,56.6,99,91,79,29.94,29.88,3,1,5,0.01
2012-7-4,72.7,61.6,57.4,64.0,60.1,57.1,99,95,73,29.95,29.82,4,2,6,0.35
2012-7-5,63.7,59.6,57.0,62.3,58.7,56.8,99,97,89,30.06,29.94,5,2,6,0.00
2012-7-6,61.0,58.3,56.7,60.2,57.3,56.3,99,97,89,30.06,29.98,7,2,8,0.17
2012-7-7,59.5,55.9,54.0,59.0,55.5,53.7,99,99,94,30.01,29.94,7,2,11,1.28
2012-7-8,62.4,58.8,53.6,56.0,54.6,53.3,99,86,78,29.97,29.89,2,0,4,0.05
2012-7-9,56.1,55.1,53.8,55.9,54.1,50.9,99,96,90,29.99,29.92,3,0,3,0.39
2012-7-10,58.6,54.5,52.5,54.8,51.7,50.2,96,90,80,29.98,29.91,3,1,5,0.05
2012-7-11,59.0,54.0,52.2,54.0,51.5,49.9,99,92,78,29.93,29.87,4,1,7,0.11
2012-7-12,60.1,55.5,51.6,52.0,50.2,48.0,94,83,71,29.95,29.86,3,1,5,0.00
2012-7-13,59.4,54.9,52.2,50.3,48.6,46.4,89,80,67,29.86,29.75,4,1,4,0.00
2012-7-14,65.1,55.5,49.8,51.7,48.9,45.8,96,79,54,29.89,29.76,5,1,5,0.05
2012-7-15,63.1,56.1,50.2,52.3,48.3,44.6,85,75,60,30.03,29.88,12,6,19,0.06
2012-7-16,64.9,58.6,52.2,57.0,52.1,46.4,86,79,71,30.11,30.01,9,2,9,0.00
2012-7-17,64.0,57.6,50.5,54.4,51.4,47.1,94,80,61,30.20,30.01,10,3,12,0.02
2012-7-18,59.4,55.7,52.3,59.1,55.2,52.1,99,98,94,30.01,29.73,6,1,7,1.33
2012-7-19,65.5,56.2,51.1,51.9,48.6,44.2,99,77,46,30.07,29.83,5,2,8,0.00
2012-7-20,64.4,57.0,48.7,50.1,47.0,44.4,87,70,53,30.25,30.07,4,1,5,0.00
2012-7-21,65.8,58.0,48.4,52.1,48.2,44.0,87,71,54,30.33,30.25,9,4,11,0.00
2012-7-22,69.1,63.6,58.6,61.0,55.7,48.0,87,76,66,30.32,30.02,23,12,27,0.00
2012-7-23,65.7,62.0,58.3,61.8,60.1,57.7,99,93,84,30.13,30.03,17,4,20,0.32
2012-7-24,71.6,62.5,57.2,59.1,56.3,53.0,98,81,58,30.19,30.11,10,2,10,0.01
2012-7-25,70.9,62.4,54.1,56.2,54.1,51.9,93,76,52,30.30,30.18,4,1,7,0.02
2012-7-26,68.7,61.0,55.6,60.4,55.0,50.2,93,81,68,30.30,30.10,7,2,8,0.00
2012-7-27,63.7,58.2,53.6,54.6,49.6,46.9,86,74,57,30.10,29.89,15,6,17,0.00
2012-7-28,63.7,56.5,52.9,53.8,50.8,48.7,92,82,62,29.89,29.73,14,6,14,0.24
2012-7-29,64.2,56.4,52.0,52.4,50.0,48.3,90,80,58,29.89,29.75,13,5,18,0.01
2012-7-30,63.0,55.0,50.5,52.0,48.6,45.8,93,80,57,30.01,29.89,11,3,13,0.12
2012-7-31,70.3,57.6,48.6,53.2,49.0,45.4,93,75,45,30.03,29.89,6,2,7,0.08
2012-8-1,68.2,61.9,55.0,60.9,58.0,53.1,98,88,72,29.88,29.65,8,2,12,0.05
2012-8-2,70.9,61.0,53.2,56.2,53.2,51.0,93,76,53,29.88,29.71,10,2,12,0.01
2012-8-3,67.1,59.4,50.9,56.6,53.3,48.7,94,81,66,29.93,29.88,5,1,8,0.00
2012-8-4,73.6,61.7,57.4,61.1,57.6,55.6,96,87,64,29.93,29.87,6,2,6,0.00
2012-8-5,60.1,58.2,56.7,59.5,57.2,55.4,99,97,93,29.88,29.79,2,1,4,0.27
2012-8-6,69.8,59.5,56.3,61.2,57.2,55.9,99,93,69,29.96,29.78,4,1,4,0.28
2012-8-7,70.3,60.9,52.5,56.4,52.8,49.8,97,76,53,30.24,29.96,12,4,14,0.00
2012-8-8,70.7,60.2,50.5,56.5,53.3,48.9,95,79,57,30.38,30.25,4,2,6,0.00
2012-8-9,72.1,60.8,51.6,56.6,52.7,48.8,91,76,55,30.47,30.37,7,2,8,0.00
2012-8-10,73.4,62.0,55.8,60.0,55.3,52.3,92,80,53,30.50,30.44,5,2,7,0.00
2012-8-11,69.6,61.4,53.2,56.1,54.3,51.0,93,79,60,30.44,30.19,4,1,5,0.00
2012-8-12,73.6,62.9,56.3,59.8,56.4,52.5,89,80,62,30.19,29.97,3,1,7,0.00
2012-8-13,72.0,64.9,59.4,64.8,60.2,56.0,97,85,69,29.97,29.83,5,1,10,0.07
2012-8-14,72.5,65.3,59.5,63.2,59.0,56.1,97,81,61,30.01,29.86,9,2,15,0.01
2012-8-15,74.5,62.7,57.7,63.3,59.7,55.4,99,90,68,30.01,29.68,8,2,9,0.13
2012-8-16,72.5,64.0,57.7,58.7,55.8,54.0,97,76,55,30.00,29.73,13,4,15,0.02
2012-8-17,70.9,64.1,58.6,63.7,60.3,55.9,98,88,72,30.00,29.79,10,2,13,0.17
2012-8-18,72.7,67.6,62.1,64.6,60.3,53.9,95,78,56,30.10,29.85,11,3,15,0.00
2012-8-19,70.3,61.5,56.1,58.8,56.9,54.1,95,85,65,30.15,30.09,4,1,4,0.13
2012-8-20,73.2,63.0,53.6,59.7,56.7,52.5,98,81,57,30.15,30.09,15,4,17,0.01
2012-8-21,65.5,61.5,57.6,61.9,57.7,53.8,96,87,73,30.15,29.90,11,2,13,0.28
2012-8-22,66.9,60.4,56.3,57.2,54.5,52.8,90,81,62,29.96,29.88,14,6,16,0.01
2012-8-23,65.7,60.1,55.6,56.2,52.9,49.6,91,78,57,29.96,29.86,14,5,14,0.00
2012-8-24,64.2,60.0,57.2,56.2,54.3,52.4,89,82,72,29.86,29.69,4,1,8,0.01
2012-8-25,62.4,57.8,56.1,58.5,55.7,54.3,96,93,82,29.91,29.67,6,2,8,0.09
2012-8-26,64.4,56.7,52.5,54.4,47.7,44.3,94,73,51,30.11,29.92,4,2,5,0.01
2012-8-27,63.3,58.4,53.2,58.2,54.3,49.1,93,86,81,30.08,29.59,14,4,17,0.07
2012-8-28,66.6,60.5,55.4,56.5,51.4,48.6,86,73,54,29.89,29.62,20,9,21,0.01
2012-8-29,64.8,56.6,52.2,56.7,52.4,47.3,97,86,57,29.87,29.73,8,2,14,0.65
2012-8-30,62.4,54.1,49.3,51.1,44.8,38.6,97,73,42,30.46,29.86,7,2,8,0.01
2012-8-31,59.0,52.5,44.4,57.0,47.8,40.7,94,84,69,30.49,30.30,10,3,13,0.02
2012-9-1,66.6,61.6,59.0,59.1,56.7,54.5,92,84,66,30.30,30.07,17,8,23,0.01
2012-9-2,68.4,61.7,57.0,59.5,54.8,52.9,93,79,60,30.36,30.11,13,5,13,0.00
2012-9-3,73.4,64.2,58.8,61.7,56.8,53.4,89,78,59,30.36,30.13,18,8,18,0.00
2012-9-4,65.3,60.6,55.4,62.1,50.8,46.0,94,71,52,30.35,30.13,17,7,23,0.00
2012-9-5,65.8,57.7,52.2,51.6,48.8,46.9,84,73,56,30.50,30.35,8,4,11,0.00
2012-9-6,53.4,52.6,51.4,48.4,47.6,46.5,85,83,81,30.49,30.14,6,2,6,0.00
2012-9-7,52.7,52.7,52.7,47.7,47.7,47.7,83,83,83,30.25,30.16,2,2,2,0.00
2012-9-8,52.7,52.7,52.7,47.7,47.7,47.7,83,83,83,30.23,30.02,2,2,2,0.00
2012-9-9,52.7,52.7,52.7,47.7,47.7,47.7,83,83,83,30.01,29.61,2,2,2,0.00
2012-9-10,52.7,52.7,52.7,47.7,47.7,47.7,83,83,83,29.74,29.60,2,2,2,0.00
2012-9-11,52.7,52.7,52.7,47.7,47.7,47.7,83,83,83,29.91,29.73,2,2,2,0.00
2012-9-12,52.7,52.7,52.7,47.7,47.7,47.7,83,83,83,30.15,29.86,2,2,2,0.00
2012-9-13,52.7,52.7,52.7,47.7,47.7,47.7,83,83,83,30.16,29.63,2,2,2,0.00
2012-9-14,52.7,52.7,52.7,47.7,47.7,47.7,83,83,83,30.00,29.60,2,2,2,0.00
2012-9-15,52.7,52.7,52.7,47.7,47.7,47.7,83,83,83,30.01,29.86,2,2,2,0.00
2012-9-16,52.7,52.7,52.7,47.7,47.7,47.7,83,83,83,29.86,29.70,2,2,2,0.00
2012-9-17,65.8,56.1,51.8,58.3,52.2,47.3,97,87,56,29.78,29.36,10,2,10,0.65
2012-9-18,62.8,54.0,49.3,50.3,44.3,38.2,97,72,43,30.09,29.50,7,2,7,0.01
2012-9-19,59.4,52.8,44.4,57.3,48.2,40.7,94,85,69,30.11,29.91,13,3,13,0.02
2012-9-20,66.6,61.7,59.4,59.4,56.7,54.4,92,84,66,29.91,29.69,16,9,16,0.01
2012-9-21,68.2,61.5,57.0,59.5,54.6,52.9,93,79,60,29.98,29.74,11,5,11,0.00
2012-9-22,70.0,58.0,48.0,57.8,51.4,40.8,89,79,57,29.99,29.83,16,5,16,0.00
2012-9-23,56.8,48.2,39.0,45.2,41.5,37.2,93,78,57,29.83,29.47,7,1,8,0.00
2012-9-24,52.5,50.8,46.9,50.0,47.5,43.0,96,88,82,29.47,28.92,14,4,18,0.19
2012-9-25,54.1,51.5,48.2,51.8,49.5,45.2,98,93,84,28.98,28.62,17,7,22,0.27
2012-9-26,57.6,53.1,51.4,52.6,51.0,50.0,98,92,83,29.35,28.99,11,3,104,0.33
2012-9-30,59.7,55.7,53.2,50.7,48.5,46.6,86,77,69,29.38,29.36,21,10,21,0.08
2012-10-1,58.3,53.4,50.0,48.7,46.9,44.6,86,79,61,29.38,29.25,16,10,23,0.01
2012-10-2,57.2,51.8,48.6,50.7,46.3,43.6,88,81,70,29.29,29.04,15,6,21,0.08
2012-10-3,54.9,49.0,44.8,45.1,43.4,41.0,91,81,64,29.25,29.02,15,6,16,0.02
2012-10-4,55.4,48.2,41.9,47.9,43.3,40.4,95,84,65,29.38,29.25,9,3,13,0.01
2012-10-5,50.0,46.0,43.2,44.9,42.8,41.3,94,89,78,29.28,29.20,7,2,9,0.02
2012-10-6,47.3,45.4,43.5,41.9,40.5,39.2,85,83,80,29.80,29.75,3,1,4,0.01
2012-10-7,54.7,46.2,38.3,43.4,39.2,35.4,90,77,59,29.94,29.80,5,2,8,0.00
2012-10-8,55.6,46.8,38.5,43.9,40.0,36.1,92,78,61,29.89,29.73,8,1,8,0.00
2012-10-9,52.0,43.3,36.0,39.4,36.9,33.3,91,79,61,29.84,29.77,3,0,4,0.00
2012-10-10,52.2,43.8,35.1,44.9,39.2,32.4,92,84,69,29.78,29.51,4,0,4,0.00
2012-10-11,59.2,52.0,49.1,50.8,48.6,44.9,99,88,68,29.51,29.25,4,0,5,0.53
2012-10-12,52.7,49.9,47.8,51.4,46.6,42.0,99,89,77,29.25,29.15,16,6,21,0.64
2012-10-13,50.9,48.4,45.7,45.7,44.0,41.8,93,85,78,29.32,29.24,12,6,14,0.06
2012-10-14,49.8,46.3,43.3,47.9,44.7,42.5,97,94,86,29.41,29.31,3,1,4,0.24
2012-10-15,49.3,42.1,37.6,42.5,37.8,35.2,97,85,60,29.36,29.12,8,1,8,0.00
2012-10-16,45.1,42.1,38.3,42.5,40.0,36.2,97,92,86,29.24,28.97,6,2,8,0.52
2012-10-17,47.8,43.0,35.2,47.3,42.2,34.0,99,97,92,29.24,29.04,3,1,4,0.47
2012-10-18,52.3,47.6,42.8,50.8,46.9,42.5,99,98,92,29.42,29.12,3,0,4,0.21
2012-10-19,50.5,49.3,47.7,50.1,48.8,46.9,99,98,97,29.53,29.41,4,2,7,0.15
2012-10-20,54.9,50.5,46.9,50.8,47.5,44.6,99,90,72,29.78,29.49,10,1,11,0.02
2012-10-21,55.8,48.5,43.2,52.0,46.5,42.1,98,93,81,29.99,29.78,2,0,4,0.00
2012-10-22,50.5,46.0,38.3,49.4,44.8,37.5,99,96,92,30.12,29.98,3,1,6,0.00
2012-10-23,51.6,50.7,49.6,51.4,50.4,49.4,99,99,97,30.15,30.10,4,2,5,0.11
2012-10-24,51.1,49.4,46.2,50.8,48.2,44.2,99,96,87,30.13,29.99,3,1,4,0.01
2012-10-25,51.6,46.5,40.8,47.1,41.9,32.8,98,85,67,30.00,29.91,11,2,11,0.00
2012-10-26,43.3,39.7,36.1,33.7,29.8,26.3,80,68,51,30.00,29.83,8,3,15,0.00
2012-10-27,46.6,40.3,33.3,42.1,32.7,28.5,92,75,53,29.98,29.66,13,4,14,0.01
2012-10-28,50.7,48.3,44.4,46.8,45.2,42.2,95,89,81,29.65,29.27,17,6,18,0.00
2012-10-29,48.7,43.9,39.7,44.7,40.7,35.5,99,89,74,29.52,29.36,8,2,8,0.00
2012-10-30,49.3,46.4,40.6,45.9,43.2,36.7,94,88,81,29.41,28.77,23,8,24,0.01
2012-10-31,49.5,44.1,38.8,44.3,41.2,37.0,95,90,78,28.77,28.51,18,5,23,0.28
2012-11-1,43.7,39.9,35.2,41.5,36.6,34.4,99,88,73,28.53,28.43,10,3,15,0.04
2012-11-2,46.6,43.9,38.8,41.7,38.3,34.4,90,81,72,28.90,28.43,22,8,24,0.00
2012-11-3,44.1,39.4,35.4,37.7,35.0,32.9,92,84,68,29.02,28.91,8,2,12,0.00
2012-11-4,45.9,39.0,36.5,40.7,36.5,34.4,96,91,81,29.36,29.01,3,1,6,0.00
2012-11-5,47.5,40.7,36.0,39.8,37.0,34.8,97,87,71,29.71,29.36,6,2,8,0.00
2012-11-6,53.4,48.4,38.1,50.0,45.1,34.9,95,88,81,29.78,29.60,15,8,20,0.06
2012-11-7,52.5,50.4,48.9,48.8,46.3,43.9,92,86,81,29.78,29.52,21,10,25,0.01
2012-11-8,52.0,49.1,46.8,45.9,44.0,42.3,89,82,72,29.64,29.44,22,8,22,0.00
2012-11-9,51.8,49.1,45.1,47.9,43.9,39.7,90,82,75,29.44,29.06,18,9,23,0.00
2012-11-10,49.5,44.4,40.5,42.5,39.4,37.3,93,83,69,29.20,29.00,15,5,16,0.01
2012-11-11,46.8,42.5,38.8,41.0,38.6,35.2,94,86,78,29.71,29.21,7,3,8,0.00
2012-11-12,56.5,46.7,35.8,53.5,44.0,33.6,95,91,86,29.71,29.56,14,3,16,0.02
2012-11-13,58.6,55.7,48.9,53.6,51.5,48.1,97,86,74,29.84,29.66,20,9,27,0.07
2012-11-14,50.4,49.0,44.6,50.1,48.0,43.0,99,96,89,29.98,29.84,5,2,7,0.14
2012-11-15,52.7,47.5,40.3,50.7,45.1,39.5,99,92,79,29.97,29.67,11,4,17,0.01
2012-11-16,50.2,46.8,44.4,46.6,41.8,39.4,94,83,72,29.67,29.42,13,5,21,0.11
2012-11-17,46.4,43.4,38.8,43.6,39.4,35.1,93,86,76,29.43,29.34,17,6,18,0.04
2012-11-18,45.3,42.0,38.8,38.8,36.9,35.3,89,82,74,29.55,29.39,14,6,16,0.00
2012-11-19,55.8,51.1,41.7,50.5,45.7,38.3,89,82,72,29.38,29.02,25,11,34,0.09
2012-11-20,59.0,53.3,48.9,52.7,47.1,40.6,87,80,70,29.31,29.07,20,8,25,0.00
2012-11-21,50.5,46.7,43.9,44.2,41.3,39.5,87,81,74,29.45,29.31,13,3,17,0.00
2012-11-22,54.5,48.1,41.7,49.1,43.6,39.0,94,85,74,29.35,29.02,21,7,25,0.39
2012-11-23,47.3,43.5,39.7,40.5,38.6,36.8,92,83,71,29.58,29.05,23,8,23,0.12
2012-11-24,41.5,39.5,35.6,38.0,36.2,33.0,92,88,84,29.69,29.39,9,1,11,0.00
2012-11-25,43.5,41.6,38.8,43.3,40.8,37.8,99,97,92,29.38,29.18,9,2,11,0.50
2012-11-26,45.0,43.1,38.7,40.5,38.7,37.1,98,85,77,29.57,29.36,8,3,12,0.00
2012-11-27,45.3,43.1,40.3,38.2,36.8,34.8,83,79,76,29.83,29.56,9,2,11,0.00
2012-11-28,41.7,37.4,33.4,35.1,31.4,28.4,85,79,68,29.86,29.81,4,1,8,0.00
2012-11-29,37.4,34.0,32.0,31.2,29.1,27.6,88,82,77,29.83,29.58,4,2,7,0.00
2012-11-30,41.2,35.4,30.6,35.7,31.4,27.7,96,86,74,29.63,29.56,5,1,7,0.22
2012-12-1,39.6,35.7,33.1,36.0,31.7,27.9,98,86,66,29.72,29.59,4,1,11,0.00
2012-12-2,37.9,33.6,31.6,31.8,29.5,27.4,89,85,77,29.73,29.52,6,1,8,0.00
2012-12-3,41.5,37.6,33.4,39.1,35.5,31.1,98,92,84,29.50,29.19,11,3,14,0.07
2012-12-4,39.2,36.5,32.2,37.1,35.1,30.9,97,95,91,29.46,29.20,4,2,6,0.09
2012-12-5,36.9,32.4,28.8,30.6,28.1,23.9,95,84,74,29.73,29.46,6,1,11,0.01
2012-12-6,40.3,37.3,28.8,37.8,33.2,23.1,96,85,63,29.69,28.98,17,7,24,0.14
2012-12-7,43.5,38.1,33.3,38.0,34.7,31.4,98,88,77,29.84,29.08,9,2,9,0.11
2012-12-8,48.9,42.1,34.9,46.7,39.0,31.7,95,89,83,29.91,29.65,14,6,20,0.00
2012-12-9,47.3,43.6,40.1,43.7,36.4,33.4,92,76,67,29.90,29.60,14,4,18,0.02
2012-12-10,40.8,36.3,32.0,34.6,31.8,29.1,91,83,77,30.22,29.91,3,0,8,0.00
2012-12-11,35.6,31.2,28.2,30.1,27.7,25.4,89,87,80,30.22,29.99,4,1,4,0.00
2012-12-12,34.9,32.4,30.2,33.1,30.0,27.2,96,91,84,29.99,29.58,5,1,7,0.00
2012-12-13,36.7,33.9,31.3,33.6,30.4,22.7,96,87,67,29.58,29.23,2,0,4,0.00
2012-12-14,42.6,37.9,32.4,41.8,34.9,26.5,98,89,76,29.23,28.37,4,1,6,0.24
2012-12-15,46.8,44.1,38.7,42.6,41.1,37.4,98,89,84,28.95,28.39,17,7,21,0.02
2012-12-16,48.2,43.8,40.5,42.3,40.2,38.3,94,87,79,29.09,28.95,8,2,11,0.00
2012-12-17,44.1,42.0,39.0,43.3,40.9,37.3,98,96,92,29.45,29.06,2,0,4,0.05
2012-12-18,44.6,43.0,40.3,44.3,42.4,39.5,99,98,95,29.86,29.50,2,0,4,0.01
2012-12-19,44.8,42.9,39.6,40.4,39.3,38.3,98,87,79,29.84,29.60,6,1,7,0.04
2012-12-20,43.9,42.5,41.2,40.6,39.7,38.7,93,90,86,29.60,29.33,8,2,11,0.19
2012-12-21,42.3,41.5,41.0,41.2,40.4,39.4,97,96,91,29.62,29.38,2,1,4,0.22
2012-12-22,46.2,43.4,41.2,46.0,42.4,39.9,99,97,93,29.58,28.95,4,1,5,0.32
2012-12-23,53.1,47.9,45.1,50.4,44.6,41.5,99,88,78,29.18,28.66,24,10,28,0.14
2012-12-24,47.7,44.9,40.8,44.7,41.3,37.8,94,87,82,29.18,28.90,18,5,18,0.04
2012-12-25,44.2,41.8,38.3,40.7,38.4,36.2,94,88,81,29.03,28.84,13,4,18,0.01
2012-12-26,43.3,41.3,38.1,40.8,39.0,37.2,98,92,83,29.19,29.03,17,3,17,0.51
2012-12-27,40.6,38.8,37.8,38.1,35.6,33.0,98,88,79,29.66,29.05,9,3,12,0.19
2012-12-28,55.2,49.1,40.8,50.3,44.8,36.2,92,85,81,29.64,28.95,23,11,33,0.07
2012-12-29,55.4,46.9,41.4,50.2,41.3,34.4,88,81,73,28.95,28.90,32,12,34,0.01
2012-12-30,52.2,41.9,36.0,48.7,38.0,33.7,93,86,78,29.09,28.95,24,13,27,0.07
2012-12-31,52.5,47.2,37.8,48.4,42.1,34.5,89,83,75,29.03,28.72,28,12,33,0.02
2013-1-1,44.8,41.5,38.5,39.5,37.4,34.3,88,85,79,29.64,29.02,17,7,21,0.00